QFA1427 YSSY-YSCB

Flight info

Callsign QFA1427
Flight time 0h 32m
Altitude 22000
Route GROOK1/16R WOL H65 LEECE
Aircraft B738/M-SDE2E3FGHIRWXY/LB1

Departure

Time 2026-05-05 09:17
Airport Sydney Kingsford Smith International Airport (YSSY)

Arrival

Time 2026-05-05 09:49
Airport Canberra Airport (YSCB)
Time Latitude Longitude Altitude Speed Heading
2026-05-05 08:39 -33.93557 151.17999 20 ft 0 kts 279°
2026-05-05 09:06 -33.93557 151.18002 20 ft 2 kts 279°
2026-05-05 09:07 -33.93559 151.18021 21 ft 2 kts 277°
2026-05-05 09:07 -33.93562 151.18039 21 ft 2 kts 277°
2026-05-05 09:07 -33.93563 151.18057 21 ft 1 kts 277°
2026-05-05 09:07 -33.93564 151.18065 22 ft 0 kts 279°
2026-05-05 09:10 -33.93565 151.18063 22 ft 0 kts 248°
2026-05-05 09:10 -33.93586 151.18057 21 ft 7 kts 188°
2026-05-05 09:11 -33.93667 151.18056 19 ft 13 kts 177°
2026-05-05 09:11 -33.93756 151.18069 18 ft 12 kts 202°
2026-05-05 09:11 -33.93796 151.17967 14 ft 15 kts 254°
2026-05-05 09:11 -33.93819 151.17870 10 ft 9 kts 255°
2026-05-05 09:12 -33.93842 151.17755 8 ft 17 kts 266°
2026-05-05 09:12 -33.93865 151.17645 8 ft 14 kts 274°
2026-05-05 09:12 -33.93792 151.17583 8 ft 14 kts 348°
2026-05-05 09:12 -33.93690 151.17557 8 ft 15 kts 348°
2026-05-05 09:13 -33.93576 151.17526 8 ft 17 kts 348°
2026-05-05 09:13 -33.93451 151.17502 10 ft 17 kts
2026-05-05 09:13 -33.93334 151.17491 15 ft 16 kts 347°
2026-05-05 09:13 -33.93224 151.17464 18 ft 15 kts 347°
2026-05-05 09:14 -33.93124 151.17436 19 ft 15 kts 348°
2026-05-05 09:14 -33.93030 151.17412 21 ft 11 kts 348°
2026-05-05 09:14 -33.92971 151.17372 21 ft 10 kts 294°
2026-05-05 09:14 -33.92963 151.17329 21 ft 0 kts 281°
2026-05-05 09:15 -33.92962 151.17328 21 ft 2 kts 281°
2026-05-05 09:15 -33.92952 151.17264 21 ft 12 kts 280°
2026-05-05 09:15 -33.92960 151.17171 23 ft 10 kts 203°
2026-05-05 09:16 -33.93004 151.17175 24 ft 0 kts 167°
2026-05-05 09:16 -33.93116 151.17206 24 ft 49 kts 168°
2026-05-05 09:16 -33.93682 151.17352 11 ft 114 kts 168°
2026-05-05 09:16 -33.94627 151.17603 70 ft 156 kts 168°
2026-05-05 09:17 -33.95671 151.17830 675 ft 154 kts 171°
2026-05-05 09:17 -33.96746 151.17888 1255 ft 158 kts 184°
2026-05-05 09:17 -33.97895 151.17755 1669 ft 175 kts 182°
2026-05-05 09:17 -33.99139 151.17660 2229 ft 185 kts 181°
2026-05-05 09:18 -34.00500 151.17589 2646 ft 205 kts 181°
2026-05-05 09:18 -34.01935 151.17531 3273 ft 213 kts 181°
2026-05-05 09:18 -34.03467 151.17665 3788 ft 228 kts 169°
2026-05-05 09:18 -34.05057 151.18178 4261 ft 244 kts 164°
2026-05-05 09:19 -34.06723 151.18808 4745 ft 259 kts 164°
2026-05-05 09:19 -34.08475 151.19434 5349 ft 269 kts 166°
2026-05-05 09:19 -34.10297 151.20044 6087 ft 273 kts 166°
2026-05-05 09:19 -34.12136 151.20648 6850 ft 277 kts 167°
2026-05-05 09:20 -34.13976 151.21256 7646 ft 280 kts 167°
2026-05-05 09:20 -34.15853 151.21875 8455 ft 282 kts 167°
2026-05-05 09:20 -34.17794 151.22310 9242 ft 284 kts 179°
2026-05-05 09:20 -34.19726 151.22025 10042 ft 283 kts 200°
2026-05-05 09:21 -34.21497 151.20950 10652 ft 292 kts 217°
2026-05-05 09:21 -34.23050 151.19293 11221 ft 304 kts 227°
2026-05-05 09:21 -34.24473 151.17383 11901 ft 312 kts 230°
2026-05-05 09:21 -34.25871 151.15384 12715 ft 315 kts 231°
2026-05-05 09:22 -34.27288 151.13338 13560 ft 318 kts 231°
2026-05-05 09:22 -34.28696 151.11316 14357 ft 322 kts 231°
2026-05-05 09:22 -34.30155 151.09236 15190 ft 326 kts 231°
2026-05-05 09:22 -34.31636 151.07140 15998 ft 330 kts 231°
2026-05-05 09:23 -34.33115 151.05051 16789 ft 334 kts 231°
2026-05-05 09:23 -34.34634 151.02907 17552 ft 338 kts 231°
2026-05-05 09:23 -34.36165 151.00746 18332 ft 341 kts 231°
2026-05-05 09:23 -34.37767 150.98596 19011 ft 347 kts 227°
2026-05-05 09:24 -34.39536 150.96532 19387 ft 362 kts 225°
2026-05-05 09:24 -34.41434 150.94473 19751 ft 376 kts 224°
2026-05-05 09:24 -34.43436 150.92351 20299 ft 384 kts 223°
2026-05-05 09:24 -34.45447 150.90221 20940 ft 389 kts 224°
2026-05-05 09:25 -34.47479 150.88057 21633 ft 391 kts 224°
2026-05-05 09:25 -34.49533 150.85855 22080 ft 396 kts 224°
2026-05-05 09:25 -34.51591 150.83635 22170 ft 398 kts 225°
2026-05-05 09:25 -34.53657 150.81380 22167 ft 395 kts 225°
2026-05-05 09:26 -34.55624 150.79057 22168 ft 393 kts 229°
2026-05-05 09:26 -34.57397 150.76570 22171 ft 392 kts 233°
2026-05-05 09:26 -34.59049 150.73969 22172 ft 391 kts 236°
2026-05-05 09:26 -34.60660 150.71292 22173 ft 391 kts 237°
2026-05-05 09:27 -34.62234 150.68625 22179 ft 391 kts 237°
2026-05-05 09:27 -34.63817 150.65936 22179 ft 391 kts 237°
2026-05-05 09:27 -34.65399 150.63254 22179 ft 390 kts 237°
2026-05-05 09:27 -34.66973 150.60600 22183 ft 390 kts 237°
2026-05-05 09:28 -34.68578 150.57904 22187 ft 390 kts 236°
2026-05-05 09:28 -34.70164 150.55246 22187 ft 391 kts 236°
2026-05-05 09:28 -34.71759 150.52576 22187 ft 390 kts 236°
2026-05-05 09:28 -34.73342 150.49931 22187 ft 390 kts 236°
2026-05-05 09:29 -34.74956 150.47234 22190 ft 390 kts 236°
2026-05-05 09:29 -34.76547 150.44575 22195 ft 389 kts 236°
2026-05-05 09:29 -34.78122 150.41945 22198 ft 390 kts 236°
2026-05-05 09:29 -34.79729 150.39256 22197 ft 390 kts 236°
2026-05-05 09:30 -34.81302 150.36623 22195 ft 389 kts 236°
2026-05-05 09:30 -34.82892 150.33960 22198 ft 381 kts 237°
2026-05-05 09:30 -34.84428 150.31392 22107 ft 367 kts 237°
2026-05-05 09:30 -34.85907 150.28920 21791 ft 358 kts 237°
2026-05-05 09:31 -34.87348 150.26504 21330 ft 355 kts 237°
2026-05-05 09:31 -34.88793 150.24078 21174 ft 351 kts 237°
2026-05-05 09:31 -34.90253 150.21620 21197 ft 366 kts 237°
2026-05-05 09:31 -34.91753 150.19087 21191 ft 368 kts 237°
2026-05-05 09:32 -34.93234 150.16591 21189 ft 368 kts 237°
2026-05-05 09:32 -34.94747 150.14041 21194 ft 368 kts 237°
2026-05-05 09:32 -34.96241 150.11523 21195 ft 367 kts 237°
2026-05-05 09:32 -34.97747 150.08984 21189 ft 368 kts 237°
2026-05-05 09:33 -34.99243 150.06459 21189 ft 367 kts 237°
2026-05-05 09:33 -35.00725 150.03957 21193 ft 367 kts 237°
2026-05-05 09:33 -35.02227 150.01417 21203 ft 367 kts 237°
2026-05-05 09:33 -35.03711 149.98908 21201 ft 367 kts 237°
2026-05-05 09:34 -35.05220 149.96385 21137 ft 369 kts 235°
2026-05-05 09:34 -35.06839 149.93993 20884 ft 369 kts 231°
2026-05-05 09:34 -35.08578 149.91689 20566 ft 363 kts 229°
2026-05-05 09:34 -35.10314 149.89491 20104 ft 359 kts 228°
2026-05-05 09:35 -35.12046 149.87323 19552 ft 357 kts 228°
2026-05-05 09:35 -35.15466 149.83014 18444 ft 352 kts 228°
2026-05-05 09:35 -35.17165 149.80852 17872 ft 350 kts 228°
2026-05-05 09:36 -35.18831 149.78714 17329 ft 347 kts 228°
2026-05-05 09:36 -35.20473 149.76598 16788 ft 345 kts 228°
2026-05-05 09:36 -35.22126 149.74460 16227 ft 342 kts 228°
2026-05-05 09:36 -35.23732 149.72377 15689 ft 340 kts 228°
2026-05-05 09:37 -35.25347 149.70283 15149 ft 338 kts 227°
2026-05-05 09:37 -35.26954 149.68198 14612 ft 335 kts 227°
2026-05-05 09:37 -35.28541 149.66138 14082 ft 333 kts 227°
2026-05-05 09:37 -35.30135 149.64066 13550 ft 331 kts 227°
2026-05-05 09:38 -35.31694 149.62041 13029 ft 329 kts 227°
2026-05-05 09:38 -35.33261 149.60002 12505 ft 327 kts 227°
2026-05-05 09:38 -35.34797 149.58005 11980 ft 325 kts 227°
2026-05-05 09:38 -35.36352 149.55980 11461 ft 323 kts 226°
2026-05-05 09:39 -35.37884 149.53984 10936 ft 322 kts 226°
2026-05-05 09:39 -35.39411 149.51993 10508 ft 317 kts 226°
2026-05-05 09:39 -35.40889 149.50067 10352 ft 304 kts 226°
2026-05-05 09:39 -35.42310 149.48213 10238 ft 290 kts 226°
2026-05-05 09:40 -35.43671 149.46442 10059 ft 281 kts 226°
2026-05-05 09:40 -35.44985 149.44727 9693 ft 279 kts 226°
2026-05-05 09:40 -35.46312 149.42993 9321 ft 277 kts 226°
2026-05-05 09:40 -35.47623 149.41278 8981 ft 274 kts 226°
2026-05-05 09:41 -35.48917 149.39584 8617 ft 273 kts 226°
2026-05-05 09:41 -35.50208 149.37895 8271 ft 271 kts 226°
2026-05-05 09:41 -35.51498 149.36203 7944 ft 268 kts 226°
2026-05-05 09:41 -35.52764 149.34544 7580 ft 264 kts 226°
2026-05-05 09:42 -35.54007 149.32913 7250 ft 258 kts 226°
2026-05-05 09:42 -35.55090 149.31215 6939 ft 253 kts 239°
2026-05-05 09:42 -35.55645 149.29190 6720 ft 244 kts 261°
2026-05-05 09:42 -35.55821 149.27185 6636 ft 230 kts 265°
2026-05-05 09:43 -35.55971 149.25273 6565 ft 217 kts 263°
2026-05-05 09:43 -35.56057 149.23476 6494 ft 207 kts 274°
2026-05-05 09:43 -35.55711 149.21829 6417 ft 194 kts 301°
2026-05-05 09:43 -35.54860 149.20625 6237 ft 186 kts 324°
2026-05-05 09:44 -35.53742 149.19885 6033 ft 181 kts 345°
2026-05-05 09:44 -35.52516 149.19575 5835 ft 177 kts 356°
2026-05-05 09:44 -35.51296 149.19478 5653 ft 176 kts
2026-05-05 09:44 -35.50084 149.19455 5591 ft 177 kts
2026-05-05 09:45 -35.48847 149.19449 5368 ft 178 kts
2026-05-05 09:45 -35.47621 149.19447 5076 ft 172 kts
2026-05-05 09:45 -35.46417 149.19446 4886 ft 175 kts
2026-05-05 09:45 -35.45218 149.19446 4602 ft 172 kts
2026-05-05 09:46 -35.44028 149.19446 4371 ft 171 kts
2026-05-05 09:46 -35.42868 149.19446 4188 ft 162 kts
2026-05-05 09:46 -35.41766 149.19446 3878 ft 152 kts 360°
2026-05-05 09:46 -35.40729 149.19446 3714 ft 148 kts 359°
2026-05-05 09:47 -35.39699 149.19446 3519 ft 149 kts 359°
2026-05-05 09:47 -35.38657 149.19446 3313 ft 147 kts 359°
2026-05-05 09:47 -35.37638 149.19446 3113 ft 147 kts 359°
2026-05-05 09:47 -35.36612 149.19446 2912 ft 146 kts 359°
2026-05-05 09:48 -35.35609 149.19449 2719 ft 144 kts 360°
2026-05-05 09:48 -35.34598 149.19452 2532 ft 143 kts
2026-05-05 09:48 -35.33609 149.19458 2338 ft 142 kts
2026-05-05 09:48 -35.32625 149.19441 2148 ft 141 kts
2026-05-05 09:49 -35.31635 149.19440 1965 ft 140 kts
2026-05-05 09:49 -35.30730 149.19444 1877 ft 112 kts 360°
2026-05-05 09:49 -35.30216 149.19443 1879 ft 36 kts
2026-05-05 09:49 -35.30160 149.19440 1879 ft 2 kts 304°
2026-05-05 09:50 -35.30166 149.19354 1876 ft 16 kts 285°
2026-05-05 09:50 -35.30179 149.19244 1873 ft 14 kts 198°
2026-05-05 09:50 -35.30284 149.19238 1873 ft 15 kts 181°
2026-05-05 09:50 -35.30389 149.19240 1873 ft 15 kts 182°
2026-05-05 09:51 -35.30497 149.19238 1873 ft 15 kts 180°
2026-05-05 09:51 -35.30597 149.19238 1873 ft 12 kts 180°
2026-05-05 09:51 -35.30656 149.19171 1872 ft 11 kts 255°
2026-05-05 09:51 -35.30667 149.19113 1871 ft 7 kts 234°
2026-05-05 09:52 -35.30680 149.19093 1870 ft 0 kts 230°